STARLINK-30385, 57778

Orbit data source: Space-Track

STARLINK-30385, 57778 is a payload satellite owned by SpaceX/Seattle (US) in LEO that was launched on Mon, 04 Sep 2023 UTC via an FALCON 9 launch vehicle from the Air Force Eastern Test Range (AFETR). Payload-class satellites include a variety of spacecraft equipped with specific instruments for various scientific and technological missions. These include communications satellites like Starlink; space stations such as the ISS; scientific satellites like the Hubble; Earth observation satellites from companies like Planet Labs, Umbra, and HawkEye 360; GPS; miniature CubeSats for education and research; and military/defense satellites.

Loading next visibility...
Identifier
57778, 2023-134H
Orbit
LEO
Country
Flag of USUS
Related business
Manufacturer
SpaceX/Seattle
Mission
Operational Commercial Communications
Bus & Motor
STARLINK V2M, Unknown motor
Mass
730 kg wet, ~700 kg dry
Launch date (UTC)
2023-09-04 (3 years ago)
Launch vehicle
FALCON 9
Launch site
Air Force Eastern Test Range (AFETR)
Object type
Payload
Rocket body
Debris
Shape & HBR
Box + 2 Pan, 17.7 m
Radar Cross Section
33.884 m², Large (>1 m²)

Expand to show TLE details & history
Last TLE update: 3 days ago

TLE from 3 days ago
0 STARLINK-30385
1 57778U 23134H   26170.84206908  .00001254  00000-0  55085-4 0  9999
2 57778  43.0027 326.0981 0001575 267.1895  92.8777 15.27578421155101
Epoch: 2026-06-19T20:12Z
TLE epoch observation values (Epoch: 2026-06-19T20:12:34.768Z)
Latitude
0.00002°
Longitude
114.88801°
Altitude
482.884 km
Speed
7.626 km/s
True Right ascension
21h 44m 23s
True Declination
0° 00' 00"
Sunlit
Object was in full shadow at epoch
Visualization orbit readout
Latitude
Unknown
Longitude
Unknown
Altitude
Unknown
Speed
Unknown
Apparent Right ascension
Unknown
Apparent Declination
Unknown
Sunlit
N/A
Visualization observer readout
Local Sidereal Time
00:50:18
Azimuth
Unknown
Elevation
Unknown
Doppler factor
Unknown
Orbital elements
Apogee altitude
486.079 km
Perigee altitude
483.918 km
Semi-major axis
6,863.136 km
Eccentricity
0.00016
Inclination
43.0027°
RAAN
326.0981°
Arg. of periapsis
267.1895°
True anomaly
92.89573°
Mean anomaly
92.8777°
Eccentric anomaly
92.88671°
Mean motion
3.81733 °/min
Orbital period
94.31 mins
BSTAR
0.000055085
Loading maneuver chart data...
Computing Atmospheric mass density...
Loading historical data...
Loading historical data...
Loading historical data...
Loading historical data...
Loading historical data...
Loading historical data...
Loading historical data...

Documentation

Showing up to 5 results
|